Погода в Верхней Синячихе

Россия / Свердловская область     57°58′51″N   61°39′44″E
темп.,
°C
ветер,
м/с
пор.,
м/с
влажн.,
%
обл.,
%
осадки,
мм/ч
давл.,
гПа
погр.,
м
7 марта, вс
вс723:00−15з399248 0.1 1009249
02:00−18зюз23940 0.0 101076
05:00−19зюз23955 0.0 101174
08:00−20юз239711 0.0 101049
11:00−13зюз23856 0.0 1010340
14:00−9юз127885 0.0 1008831
17:00−10юз128692 0.2 1007392
20:00−14зсз1296100 0.1 100720
8 марта, пн
пн823:00−17з239686 0.1 100723
02:00−19зсз239541 0.0 100742
05:00−20з239521 0.0 100824
08:00−21зюз22960 0.0 100724
11:00−14ю238822 0.0 1006261
14:00−10ююв3684100 0.0 1004619
17:00−10ююв4892100 0.1 1003716
20:00−12юв3895100 0.1 1001384
9 марта, вт
вт923:00−10ююв41095100 0.7 1000485
02:00−8юз41192100 0.3 999666
05:00−9юз41190100 0.4 1000527
08:00−11юз399268 0.0 1003347
11:00−7юз468575 0.0 1004724
14:00−5юз2483100 0.1 1003764
17:00−5зюз1186100 0.2 1001321
20:00−8с4896100 0.3 1002257
10 марта, ср
ср1023:00−14сз239792 0.4 100579
02:00−17сз239891 0.1 100642
05:00−19ссз239986 0.1 100748
08:00−20ссз259990 0.1 1007160
11:00−17ссз249394 0.1 1008313
14:00−14с3488100 0.1 1007518
17:00−14с3488100 0.1 1007599
20:00−19ссз2398100 0.1 100873
11 марта, чт
чт1123:00−23сз229974 0.1 100920
02:00−20зсз249995 0.1 1006107
05:00−25з379194 0.1 1007177
08:00−24з4119237 0.0 1007383
11:00−18з5108855 0.0 1006691
14:00−15з5986100 0.1 1007851
17:00−14з5982100 0.1 10081167
20:00−15зсз31188100 0.1 1009473